Weather reports worldwide

Advertisment
Schleswig, Germany (10035): temperature & dewpoint: 20.09.2020 14:00:00 - 26.09.2020 14:00:00 (CEST)Schleswig, Germany (10035): temperature 5cm & temperature -5cm: 20.09.2020 14:00:00 - 26.09.2020 14:00:00 (CEST)Schleswig, Germany (10035): temperature -20cm & temperature -100cm: 20.09.2020 14:00:00 - 26.09.2020 14:00:00 (CEST)Schleswig, Germany (10035): wind speed & gusts: 20.09.2020 14:00:00 - 26.09.2020 14:00:00 (CEST)Schleswig, Germany (10035): wind direction: 20.09.2020 14:00:00 - 26.09.2020 14:00:00 (CEST)Schleswig, Germany (10035): reduced air pressure: 20.09.2020 14:00:00 - 26.09.2020 14:00:00 (CEST)Schleswig, Germany (10035): visibility: 20.09.2020 14:00:00 - 26.09.2020 14:00:00 (CEST)Schleswig, Germany (10035): sunshine duration: 20.09.2020 14:00:00 - 26.09.2020 14:00:00 (CEST)Schleswig, Germany (10035): precipitation: 20.09.2020 14:00:00 - 26.09.2020 14:00:00 (CEST)
Date & Time tt [°C] td [°C] tt 5cm [°C] tt -5cm [°C] tt -20cm [°C] tt -100cm [°C] ff [km/h] ff [kn] fx [km/h] fx [kn] dd ppp [hPa] vv [km] sd [min] rr [mm]
26.09.2020 14:00:00 14,3 9,4 15,3 15,7 13,1 15,5 7 4 16 9 WNW 998,6 34 0 0,0
26.09.2020 13:00:00 13,7 8,9 14,8 15,2 12,7 15,5 6 4 16 9 NW 998,7 37 0 0,0
26.09.2020 12:00:00 13,9 8,6 15,6 15,1 12,4 15,5 9 5 16 9 W 998,6 28 0 0,0
26.09.2020 11:00:00 12,8 8,7 13,4 12,8 12,1 15,5 3 2 7 4 W 998,2 32 0 0,0
26.09.2020 10:00:00 11,6 7,1 11,0 11,1 12,0 15,5 2 1 9 5 W 998,0 29 10 0,0
26.09.2020 09:00:00 9,9 6,7 8,3 9,0 12,1 15,5 4 2 10 5 SW 997,5 32 26 0,0
26.09.2020 08:00:00 7,0 5,7 6,5 7,5 12,2 15,6 5 3 12 6 SW 997,4 17 0 0,0
26.09.2020 07:00:00 6,0 4,9 4,4 6,8 12,4 15,6 8 4 10 5 SSW 997,4 16 0 0,0
26.09.2020 06:00:00 5,6 4,7 3,6 6,9 12,7 15,6 8 5 10 5 SSW 996,9 13 0 0,0
26.09.2020 05:00:00 5,7 4,9 3,8 7,1 12,9 15,6 9 5 10 6 SSW 996,9 14 0 0,0
26.09.2020 04:00:00 5,5 5,1 2,1 7,1 13,2 15,6 3 2 9 5 SSW 996,7 10 0 0,0
26.09.2020 03:00:00 5,8 5,1 3,9 7,5 13,5 15,6 5 3 9 5 SW 996,8 20 0 0,0
26.09.2020 02:00:00 6,6 5,5 2,5 7,7 13,8 15,6 6 3 11 6 WSW 996,7 29 0 0,0
26.09.2020 01:00:00 6,7 5,8 2,9 8,2 14,2 15,6 6 3 10 5 WSW 996,4 19 0 0,0
26.09.2020 00:00:00 6,5 5,6 5,1 8,8 14,5 15,6 8 4 10 5 W 996,4 26 0 0,0
25.09.2020 23:00:00 7,6 6,3 3,8 9,3 14,9 15,6 7 4 10 6 W 996,7 33 0 0,0
25.09.2020 22:00:00 8,3 6,7 4,1 10,1 15,3 15,6 8 4 14 8 WSW 996,8 32 0 0,0
25.09.2020 21:00:00 8,8 6,8 5,1 11,1 15,6 15,6 8 5 12 6 W 996,6 38 0 0,0
25.09.2020 20:00:00 9,9 7,0 6,0 12,3 15,9 15,6 7 4 14 8 W 996,5 38 1 0,0
25.09.2020 19:00:00 11,9 7,5 8,7 14,2 16,0 15,6 8 4 18 10 W 996,3 42 53 0,0
25.09.2020 18:00:00 13,5 7,5 12,3 16,0 16,0 15,6 11 6 28 15 W 996,3 41 52 0,0
25.09.2020 17:00:00 15,2 7,6 17,4 18,3 15,7 15,6 12 7 25 14 SW 995,9 41 51 0,0
25.09.2020 16:00:00 16,0 9,0 20,0 18,9 15,3 15,6 11 6 29 15 WSW 995,4 57 32 0,0
25.09.2020 15:00:00 15,2 10,3 16,0 18,4 15,0 15,6 10 5 21 12 SW 995,7 44 11 0,0
25.09.2020 14:00:00 14,2 10,6 14,4 16,6 14,8 15,6 10 6 23 12 WSW 996,0 41 1 0,0
25.09.2020 13:00:00 13,4 11,4 13,4 15,0 14,7 15,6 7 4 16 9 WSW 995,9 35 0 0,1
25.09.2020 12:00:00 12,5 11,5 12,4 13,7 14,7 15,6 7 4 23 12 SW 996,0 24 0 0,1
25.09.2020 11:00:00 13,4 11,6 13,0 14,0 14,6 15,6 7 4 16 9 SSE 995,8 45 0 0,0
25.09.2020 10:00:00 12,8 11,5 12,6 13,4 14,6 15,6 8 4 28 15 SE 995,5 17 0 0,7
25.09.2020 09:00:00 13,7 10,3 13,5 13,0 14,6 15,6 9 5 27 15 SE 995,6 52 0 0,0
25.09.2020 08:00:00 13,4 9,6 12,9 12,5 14,7 15,6 11 6 25 13 ESE 995,4 44 0 0,0
25.09.2020 07:00:00 13,6 9,0 13,1 12,5 14,7 15,6 10 6 25 13 SE 995,4 46 0 0,0
25.09.2020 06:00:00 13,6 8,4 12,9 12,2 14,9 15,6 9 5 18 10 ESE 995,9 46 0 0,0
25.09.2020 05:00:00 12,5 8,6 11,8 11,7 15,0 15,6 8 4 19 11 E 996,5 43 0 0,0
25.09.2020 04:00:00 10,8 7,9 9,3 11,5 15,2 15,6 6 3 14 8 ENE 997,3 36 0 0,0
25.09.2020 03:00:00 11,2 8,2 9,6 11,6 15,5 15,6 7 4 16 9 NE 998,6 35 0 0,0
25.09.2020 02:00:00 11,7 7,9 10,3 11,7 15,7 15,6 9 5 13 7 E 999,5 41 0 0,0
25.09.2020 01:00:00 12,2 7,9 10,0 12,0 16,0 15,6 7 4 12 6 ESE 999,8 45 0 0,0
25.09.2020 00:00:00 12,6 7,6 10,7 12,4 16,3 15,6 7 4 13 7 ESE 1000,6 38 0 0,0
24.09.2020 23:00:00 13,1 7,4 11,2 12,9 16,6 15,6 6 3 15 8 SE 1000,9 43 0 0,0
24.09.2020 22:00:00 13,6 7,5 11,7 13,3 16,9 15,6 8 4 20 11 SSE 1001,3 43 0 0,0
24.09.2020 21:00:00 14,0 7,7 12,3 14,0 17,2 15,6 10 5 22 12 SSE 1001,6 48 0 0,0
24.09.2020 20:00:00 13,8 7,8 11,1 15,0 17,5 15,6 6 3 17 9 SSE 1002,0 43 0 0,0
24.09.2020 19:00:00 15,2 7,6 13,7 16,3 17,7 15,6 10 5 24 13 S 1001,9 41 57 0,0
24.09.2020 18:00:00 15,9 6,9 14,8 17,8 17,7 15,6 16 8 31 17 SSW 1001,7 46 56 0,0
24.09.2020 17:00:00 16,3 6,8 17,3 19,9 17,5 15,6 20 11 36 20 SSW 1002,1 42 46 0,0
24.09.2020 16:00:00 16,0 7,5 16,5 21,5 17,1 15,5 19 10 39 21 SW 1002,3 49 55 0,0
24.09.2020 15:00:00 16,8 7,7 19,1 22,0 16,7 15,5 15 8 42 23 SW 1002,0 46 49 0,0
24.09.2020 14:00:00 16,6 8,0 18,9 20,7 16,4 15,5 17 9 45 24 SW 1001,7 45 34 0,0
24.09.2020 13:00:00 16,1 9,5 17,6 19,6 16,1 15,5 21 12 47 25 SW 1001,2 30 30 0,0
24.09.2020 12:00:00 16,0 10,4 17,8 18,8 15,9 15,5 26 14 53 29 SW 1000,5 47 28 0,0
24.09.2020 11:00:00 16,0 10,4 16,9 17,9 15,7 15,5 23 12 45 24 SW 999,7 41 33 0,0
24.09.2020 10:00:00 15,6 11,5 15,9 16,1 15,7 15,5 22 12 43 23 SW 998,6 31 50 0,0
24.09.2020 09:00:00 15,1 11,7 14,1 14,3 15,7 15,5 16 9 48 26 SW 997,8 34 41 0,0
24.09.2020 08:00:00 15,1 13,5 14,2 14,4 15,8 15,5 21 11 36 19 SSW 996,6 26 0 0,0
24.09.2020 07:00:00 14,8 13,1 14,0 14,3 15,9 15,5 13 7 31 17 S 996,0 27 0 0,1
24.09.2020 06:00:00 14,6 13,2 13,8 14,4 16,0 15,5 14 8 33 18 SSW 996,1 19 0 0,9
24.09.2020 05:00:00 15,8 11,6 15,2 14,2 16,2 15,5 14 8 31 17 S 995,8 29 0 0,0
24.09.2020 04:00:00 15,9 11,9 14,9 14,0 16,4 15,5 13 7 26 14 S 996,6 29 0 0,0
24.09.2020 03:00:00 15,2 11,8 13,4 13,8 16,6 15,5 9 5 17 9 SSE 997,5 23 0 0,0
24.09.2020 02:00:00 15,0 11,8 12,5 14,4 16,9 15,5 7 4 15 8 SSE 998,5 21 0 0,0
24.09.2020 01:00:00 15,8 12,2 14,5 15,1 17,1 15,5 8 4 13 7 SSE 999,5 25 0 0,0
24.09.2020 00:00:00 16,3 12,9 14,6 15,8 17,2 15,5 7 4 13 7 S 1000,1 22 0 0,0
23.09.2020 23:00:00 16,2 13,4 15,2 16,5 17,4 15,5 0 0 25 14 N 1000,7 21 0 0,0
23.09.2020 22:00:00 17,4 12,9 16,8 16,8 17,6 15,5 9 5 16 9 S 1000,9 21 0 0,0
23.09.2020 21:00:00 17,3 13,6 15,5 16,8 17,8 15,5 8 5 15 8 SSE 1000,9 21 0 0,0
23.09.2020 20:00:00 17,7 14,2 15,7 17,7 18,0 15,5 8 4 13 7 SSE 1001,3 19 0 0,0
23.09.2020 19:00:00 18,5 14,2 16,7 19,3 18,1 15,5 5 3 18 10 S 1001,4 22 3 0,0
23.09.2020 18:00:00 19,4 14,2 18,8 20,7 18,0 15,5 10 6 22 12 SSW 1002,0 24 40 0,0
23.09.2020 17:00:00 20,0 14,0 20,6 22,3 17,6 15,5 10 6 29 15 SSW 1002,4 35 51 0,0
23.09.2020 16:00:00 20,0 14,1 21,2 23,6 17,1 15,5 16 9 32 17 SW 1002,8 30 44 0,0
23.09.2020 15:00:00 20,4 14,3 23,3 24,2 16,4 15,5 16 9 34 18 WSW 1003,0 20 52 0,0
23.09.2020 14:00:00 21,0 13,4 23,7 24,3 15,7 15,5 14 7 32 17 SW 1003,0 20 58 0,0
23.09.2020 13:00:00 19,9 11,5 21,3 22,8 15,0 15,5 16 9 34 18 SW 1003,4 14 59 0,0
23.09.2020 12:00:00 19,7 13,3 21,6 20,5 14,5 15,5 13 7 24 13 SSW 1003,4 13 51 0,0
23.09.2020 11:00:00 17,8 11,3 18,9 17,9 14,2 15,5 12 7 21 11 SSW 1003,6 19 59 0,0
23.09.2020 10:00:00 15,1 11,1 14,5 14,4 14,1 15,5 10 5 18 10 S 1003,7 12 60 0,0
23.09.2020 09:00:00 12,1 10,3 11,5 11,3 14,2 15,5 9 5 14 7 S 1003,6 6 60 0,0
23.09.2020 08:00:00 10,6 9,7 9,5 10,1 14,5 15,5 9 5 14 8 SSW 1003,8 4,5 7 0,0
23.09.2020 07:00:00 10,0 9,4 7,9 10,0 14,7 15,5 8 4 12 7 SSW 1003,7 4,3 0 0,0
23.09.2020 06:00:00 10,9 10,1 9,5 10,4 15,0 15,5 10 5 13 7 S 1003,8 4,6 0 0,0
23.09.2020 05:00:00 10,6 10,2 7,3 10,6 15,2 15,5 7 4 9 5 S 1004,2 2,7 0 0,0
23.09.2020 04:00:00 11,3 10,9 8,9 11,0 15,5 15,5 8 4 9 5 S 1004,4 2,3 0 0,0
23.09.2020 03:00:00 10,6 10,3 7,0 11,3 15,8 15,5 6 3 7 4 S 1005,0 2,2 0 0,0
23.09.2020 02:00:00 11,2 11,2 7,1 11,7 16,2 15,5 5 3 7 4 S 1005,5 1,3 0 0,0
23.09.2020 01:00:00 11,2 11,1 7,5 12,2 16,5 15,5 5 3 5 3 SSE 1006,0 1,7 0 0,0
23.09.2020 00:00:00 10,9 10,3 7,6 12,8 16,9 15,5 3 1 6 3 ESE 1006,4 4,0 0 0,0
22.09.2020 23:00:00 11,6 10,7 8,1 13,6 17,3 15,5 4 2 10 5 NNW 1006,7 7 0 0,0
22.09.2020 22:00:00 12,3 11,1 9,1 14,6 17,7 15,5 8 4 10 5 NW 1006,9 10 0 0,0
22.09.2020 21:00:00 14,0 12,4 10,6 15,9 18,0 15,5 6 3 10 5 WNW 1007,1 15 0 0,0
22.09.2020 20:00:00 15,1 12,6 11,8 17,3 18,3 15,5 7 4 11 6 WNW 1007,3 14 0 0,0
22.09.2020 19:00:00 18,2 12,8 14,3 19,3 18,4 15,5 5 3 9 5 WSW 1007,4 30 52 0,0
22.09.2020 18:00:00 20,4 11,4 17,6 21,4 18,2 15,5 5 3 13 7 WSW 1007,6 30 60 0,0
22.09.2020 17:00:00 21,6 11,5 24,4 23,5 17,7 15,5 6 3 16 8 WSW 1008,3 33 60 0,0
22.09.2020 16:00:00 22,6 11,8 26,5 24,9 17,1 15,5 5 3 17 9 WSW 1009,0 35 60 0,0
22.09.2020 15:00:00 22,7 11,4 26,3 25,7 16,3 15,5 6 4 16 9 W 1009,4 37 60 0,0
22.09.2020 14:00:00 22,3 10,8 25,0 25,6 15,4 15,5 5 3 11 6 SW 1009,9 29 60 0,0
22.09.2020 13:00:00 21,2 12,0 26,1 24,1 14,7 15,5 4 2 10 6 WNW 1010,4 24 60 0,0
22.09.2020 12:00:00 20,1 11,7 23,6 21,4 14,0 15,5 3 2 10 6 S 1010,7 27 60 0,0
22.09.2020 11:00:00 18,1 10,6 19,3 18,1 13,6 15,5 6 3 9 5 S 1011,3 36 60 0,0
22.09.2020 10:00:00 16,0 10,3 14,8 14,3 13,5 15,5 5 3 8 4 S 1011,3 31 60 0,0
22.09.2020 09:00:00 12,7 10,7 11,4 10,4 13,7 15,5 4 2 7 4 S 1011,5 20 60 0,0
22.09.2020 08:00:00 7,7 7,2 6,7 8,8 13,9 15,5 0 0 6 3 N 1011,8 6 20 0,0
22.09.2020 07:00:00 7,7 7,2 5,7 8,8 14,2 15,5 3 2 6 4 SSW 1011,7 3,3 0 0,0
22.09.2020 06:00:00 8,4 7,8 6,5 9,2 14,5 15,5 4 2 6 4 S 1012,1 11 0 0,0
22.09.2020 05:00:00 9,0 8,7 5,2 9,5 14,8 15,5 5 3 6 3 S 1012,4 5 0 0,0
22.09.2020 04:00:00 9,5 9,0 5,8 10,0 15,1 15,5 6 4 8 4 S 1013,0 18 0 0,0
22.09.2020 03:00:00 9,0 8,4 6,5 10,3 15,4 15,5 4 2 6 4 S 1013,6 3,4 0 0,0
22.09.2020 02:00:00 9,6 9,2 5,8 10,8 15,8 15,5 4 2 7 4 SE 1013,7 1,3 0 0,0
22.09.2020 01:00:00 10,2 9,8 6,4 11,3 16,2 15,5 4 2 6 3 ESE 1014,3 7 0 0,0
22.09.2020 00:00:00 10,1 9,5 6,8 12,1 16,6 15,5 4 2 6 4 ENE 1014,9 11 0 0,0
21.09.2020 23:00:00 10,8 9,8 7,1 12,8 17,0 15,5 5 3 8 5 ENE 1015,4 14 0 0,0
21.09.2020 22:00:00 11,4 10,1 7,6 13,7 17,4 15,5 5 3 6 4 NE 1015,6 23 0 0,0
21.09.2020 21:00:00 12,4 10,7 8,9 14,8 17,8 15,5 3 2 8 4 ENE 1015,7 27 0 0,0
21.09.2020 20:00:00 15,1 11,2 10,4 16,4 18,2 15,5 5 3 9 5 ESE 1015,6 39 16 0,0
21.09.2020 19:00:00 17,6 10,9 13,9 18,5 18,3 15,5 4 2 8 4 W 1015,7 37 60 0,0
21.09.2020 18:00:00 20,0 9,1 16,5 20,7 18,2 15,5 5 3 10 5 WSW 1016,1 41 60 0,0
21.09.2020 17:00:00 21,5 7,0 24,2 23,2 17,7 15,5 3 2 11 6 SW 1016,5 44 60 0,0
21.09.2020 16:00:00 21,8 8,3 27,1 24,7 17,1 15,5 4 2 16 9 S 1016,9 60 60 0,0
21.09.2020 15:00:00 21,6 8,2 25,4 25,5 16,4 15,5 6 3 16 8 S 1017,3 43 60 0,0
21.09.2020 14:00:00 20,7 9,4 23,9 24,9 15,6 15,5 6 3 15 8 S 1017,8 44 60 0,0
21.09.2020 13:00:00 18,6 10,7 23,3 23,7 14,9 15,5 6 4 13 7 SSE 1018,5 51 60 0,0
21.09.2020 12:00:00 17,2 10,6 21,2 21,1 14,4 15,5 5 3 11 6 ESE 1018,7 27 60 0,0
21.09.2020 11:00:00 14,7 13,7 16,2 17,4 14,1 15,5 6 3 13 7 E 1019,1 10 25 0,0
21.09.2020 10:00:00 13,9 13,9 14,8 14,9 14,0 15,5 5 3 13 7 ENE 1019,4 1,2 0 0,0
21.09.2020 09:00:00 13,3 13,2 13,6 13,5 13,9 15,5 7 4 15 8 ENE 1019,5 2,6 0 0,0
21.09.2020 08:00:00 12,4 12,4 12,6 12,6 13,9 15,5 8 4 16 9 E 1019,4 0,2 0 0,0
21.09.2020 07:00:00 12,1 12,1 12,2 12,2 14,0 15,5 7 4 16 9 NE 1019,8 0,2 0 0,0
21.09.2020 06:00:00 11,4 11,4 11,5 11,7 14,0 15,6 9 5 16 8 NNE 1020,0 0,2 0 0,1
21.09.2020 05:00:00 10,2 10,2 10,3 11,6 14,1 15,6 9 5 16 9 NNE 1020,2 0,1 0 0,0
21.09.2020 04:00:00 10,3 10,3 10,3 11,6 14,3 15,6 4 2 10 5 ENE 1020,1 0,1 0 0,1
21.09.2020 03:00:00 10,5 10,5 10,4 11,2 14,4 15,6 6 3 10 6 ENE 1020,5 0,2 0 0,0
21.09.2020 02:00:00 9,9 9,8 9,4 11,3 14,6 15,6 5 3 8 4 NE 1020,9 0,2 0 0,0
21.09.2020 01:00:00 10,5 10,4 9,7 11,6 14,9 15,6 4 2 10 5 ENE 1021,0 0,2 0 0,0
21.09.2020 00:00:00 11,3 11,2 10,7 11,1 15,2 15,6 5 3 14 7 NE 1021,2 0,2 0 0,0
20.09.2020 23:00:00 10,2 9,2 6,4 11,1 15,6 15,6 7 4 14 7 NNE 1021,2 13 0 0,0
20.09.2020 22:00:00 11,6 9,6 9,9 12,0 15,9 15,6 10 6 16 8 NNE 1021,4 20 0 0,0
20.09.2020 21:00:00 11,6 9,0 8,3 13,0 16,3 15,6 8 4 14 8 N 1021,4 32 0 0,0
20.09.2020 20:00:00 12,3 9,4 8,0 14,3 16,6 15,6 5 3 10 5 ENE 1020,6 31 7 0,0
20.09.2020 19:00:00 15,6 9,2 13,8 16,2 16,7 15,7 6 4 16 8 ENE 1020,6 38 60 0,0
20.09.2020 18:00:00 17,2 8,0 16,0 18,2 16,6 15,7 12 6 20 11 E 1020,9 41 60 0,0
20.09.2020 17:00:00 18,3 8,4 21,3 20,4 16,2 15,7 11 6 21 11 ENE 1021,0 31 60 0,0
20.09.2020 16:00:00 19,0 8,2 22,6 21,7 15,6 15,7 10 6 21 11 NE 1021,2 39 60 0,0
20.09.2020 15:00:00 19,0 7,4 22,9 22,6 14,9 15,7 10 5 24 13 ENE 1021,3 44 60 0,0
20.09.2020 14:00:00 19,6 6,9 22,8 22,5 14,2 15,7 12 7 23 12 ENE 1021,5 39 60 0,0

tt = temperature
td = dewpoint
tt 5cm = temperature 5cm
tt -5cm = temperature -5cm
tt -20cm = temperature -20cm
tt -100cm = temperature -100cm
ff = wind speed
fx = gusts
dd = wind direction
ppp = reduced air pressure
vv = visibility
sd = sunshine duration
rr = precipitation

Next stations